Theta_e
307 307 307 308 307 307 307 307 306 306 305 304 304 304 304 303 303 303 303 303 302 302 302 301 301 301 301 301 301 301 300 300 304 309 313 315 315 314 313 312 312 312 313 314 314 314 313 313 313 313 313 313 313 313 314 314 314 314 312 313 315 316 316 316 317 318 317 318 318 318 319 319 319 319 319 319 319 319 318 319 318 318 318 317 315
306 306 306 306 306 306 306 306 305 305 304 304 304 304 304 303 303 303 302 302 302 302 302 301 301 301 301 301 301 300 300 303 309 314 316 315 314 312 312 312 312 312 312 313 313 313 313 313 313 313 313 312 312 312 313 313 314 313 312 312 314 316 316 316 317 318 318 317 316 316 317 318 318 318 317 318 318 318 319 319 319 318 318 317 316
306 306 306 306 306 305 305 305 304 304 304 304 304 304 303 302 302 302 302 302 301 301 301 301 301 301 301 301 301 300 302 308 314 316 315 313 312 312 312 312 312 311 311 311 312 312 312 312 313 313 313 313 312 311 312 313 313 313 313 313 314 315 316 317 317 317 316 315 314 314 315 315 314 314 314 315 317 318 319 319 319 318 318 318 317
306 305 305 305 305 305 305 304 304 304 304 303 303 303 302 302 302 302 302 302 301 301 301 301 301 301 301 301 300 301 306 313 316 316 314 312 312 311 312 312 311 311 311 311 311 311 312 313 313 313 312 313 313 312 312 313 313 314 314 314 314 316 316 317 317 316 315 314 314 314 314 313 313 313 313 314 316 317 318 318 317 317 317 317 317
306 305 305 305 305 304 304 304 304 304 303 303 303 302 302 302 302 301 302 301 301 301 302 302 302 301 301 301 300 303 310 315 317 316 314 312 311 311 311 311 311 312 312 311 311 311 312 312 313 312 311 312 313 313 313 313 314 314 315 315 315 316 316 317 317 315 314 314 314 314 314 314 314 314 314 314 315 316 317 317 317 316 316 316 316
305 305 304 304 304 304 304 304 304 303 303 302 302 301 301 301 301 302 301 301 301 302 302 302 302 301 301 300 301 307 313 316 317 317 314 311 311 311 311 311 311 311 312 312 312 311 311 312 312 311 311 311 312 313 313 314 314 315 315 315 316 316 316 317 316 314 314 314 315 315 315 316 316 315 315 315 315 315 316 316 316 316 316 316 316
304 304 304 304 304 303 303 303 303 302 302 302 301 301 301 301 302 301 301 301 301 302 302 302 302 301 301 300 302 309 314 316 316 317 315 312 312 311 311 311 311 311 312 313 313 312 312 312 312 311 311 311 312 313 314 314 315 315 315 316 316 316 316 316 315 314 314 315 315 316 316 316 316 316 316 316 315 315 315 315 315 316 316 316 316
304 303 303 303 303 303 302 302 302 302 302 301 301 301 301 301 301 301 301 301 302 302 302 302 302 301 301 300 303 309 314 315 316 317 316 314 313 313 312 312 312 313 313 314 314 313 313 313 312 311 311 311 311 313 314 315 315 315 315 316 316 316 316 316 315 315 315 316 317 317 317 317 316 316 316 315 315 315 315 315 316 316 316 316 316
303 303 303 302 302 302 302 302 302 301 301 301 301 301 301 301 301 301 301 301 301 301 301 301 301 301 301 300 302 308 313 315 316 316 316 316 315 314 314 315 315 315 315 315 315 314 314 313 313 313 312 311 311 312 314 315 315 315 316 316 316 316 316 315 315 316 317 317 317 317 317 317 316 316 316 316 316 316 316 316 315 315 315 315 315
302 302 302 302 302 302 302 301 301 301 301 301 301 301 301 300 300 301 301 301 301 301 300 301 301 301 301 301 301 305 311 315 315 316 316 316 315 315 315 316 316 316 316 316 315 315 314 314 313 313 313 312 312 312 313 314 315 316 316 316 316 316 315 315 316 317 317 317 317 317 317 316 316 316 316 316 316 316 316 315 315 315 315 314 314
302 302 302 302 302 301 301 301 300 301 301 301 301 301 301 300 301 301 301 301 300 300 300 300 300 301 301 301 301 303 309 314 315 316 316 316 315 315 316 316 316 317 316 316 316 315 314 314 313 313 313 313 312 312 313 314 315 316 316 316 316 316 316 316 317 317 317 317 317 317 316 316 316 315 315 315 315 316 315 315 315 315 314 314 314
302 302 302 302 301 301 300 300 300 301 301 301 301 300 300 301 301 301 300 300 300 300 300 300 300 300 300 301 301 301 306 311 315 316 316 316 316 316 316 317 317 317 316 316 315 314 314 314 313 313 313 313 313 313 313 314 315 315 316 316 316 316 316 316 317 317 317 317 316 316 316 316 315 315 314 314 315 315 315 315 314 314 314 313 313
302 302 302 302 301 300 300 300 301 301 301 301 300 300 301 301 301 301 300 300 300 300 300 300 300 300 300 300 301 301 303 308 312 315 316 316 316 316 316 317 317 316 316 315 315 314 314 314 313 313 313 313 313 313 314 314 314 315 316 316 316 316 316 316 316 316 316 316 316 316 316 315 315 315 314 314 314 314 314 314 314 313 313 313 312
302 302 302 302 301 300 300 301 301 301 301 300 300 301 301 301 300 300 300 300 300 300 300 300 300 300 300 300 301 300 301 303 307 311 315 316 316 316 316 316 316 316 316 315 315 315 314 314 314 313 313 313 313 314 314 314 315 315 316 316 316 316 315 315 315 315 315 315 315 315 315 314 314 314 314 314 313 313 313 313 312 312 312 311 311
302 302 302 302 301 300 300 301 301 301 300 300 301 301 301 300 300 300 300 300 300 301 300 300 300 300 300 300 301 301 301 301 302 305 310 314 315 315 315 315 315 316 316 316 315 315 315 314 314 313 313 313 314 314 314 315 315 315 315 315 315 315 315 315 315 314 314 314 314 314 313 313 313 313 313 313 312 312 312 312 311 311 310 310 310
302 302 302 301 301 300 300 300 301 300 300 300 301 300 301 301 301 300 300 300 300 300 300 300 300 300 300 300 300 301 301 301 301 301 304 310 314 315 314 314 315 316 316 316 316 315 315 314 314 314 313 314 314 314 314 314 315 315 315 315 315 315 314 314 314 313 313 313 313 313 313 313 313 313 313 312 312 312 312 312 311 311 311 310 310
303 303 302 302 301 300 299 300 300 300 301 301 301 301 301 301 301 300 300 300 300 300 300 300 300 300 300 300 300 300 300 300 301 300 301 304 310 314 315 314 314 315 315 315 315 315 315 315 314 314 314 314 314 314 314 314 314 314 314 314 314 314 314 313 313 313 313 313 313 313 313 313 313 313 313 313 313 312 312 312 312 311 310 310 309
303 303 303 302 301 300 299 300 300 301 301 301 301 301 302 302 301 301 301 300 300 300 300 300 300 300 300 300 300 300 300 300 300 300 300 301 304 310 314 314 314 314 315 315 315 315 315 315 314 314 314 314 314 314 314 314 314 314 314 314 314 314 314 313 313 313 313 313 313 313 313 313 313 313 313 313 313 313 312 312 311 310 310 309 308
303 302 302 302 302 301 300 300 301 301 301 300 301 302 302 302 302 302 301 301 301 301 301 300 300 300 300 301 300 300 300 300 300 300 300 300 300 303 309 313 314 314 314 315 315 315 315 315 315 315 315 314 314 314 314 314 314 314 314 314 314 314 314 314 314 314 314 314 314 314 314 314 313 313 313 313 312 311 310 309 308 308 308 307 307
302 302 302 302 302 302 301 301 300 301 301 301 302 302 302 302 302 302 302 302 302 302 302 301 301 301 301 301 301 302 301 301 301 301 300 301 300 300 303 307 311 313 313 313 314 315 315 315 315 315 315 315 314 314 314 314 315 315 315 315 315 315 315 315 315 315 314 314 314 314 313 313 313 313 312 312 311 309 308 307 307 306 306 306 306
301 301 301 301 302 302 302 302 301 301 301 301 302 302 302 302 302 302 302 302 302 302 302 302 302 301 301 301 302 302 302 302 302 302 301 301 301 301 301 302 305 310 312 312 313 314 314 315 315 315 315 315 315 314 314 315 315 315 315 315 315 315 315 314 314 314 314 313 313 313 313 312 312 311 310 309 308 307 306 306 305 305 305 305 305
302 302 301 301 301 301 302 302 302 301 301 301 301 302 302 302 302 302 302 303 303 303 303 303 302 302 302 302 302 302 303 303 302 303 303 302 302 302 302 301 301 304 308 310 311 312 313 313 314 314 313 314 314 314 314 314 314 314 314 314 314 314 313 313 313 313 313 313 312 312 312 311 310 309 307 305 304 304 304 305 305 304 304 303 303
302 302 302 302 301 301 301 302 302 302 301 301 301 301 302 302 302 302 302 303 303 303 303 302 303 303 302 302 302 303 303 303 303 303 303 303 303 303 302 302 301 301 303 305 308 310 311 311 312 312 312 312 312 313 313 313 313 313 313 313 313 313 313 312 312 312 312 311 311 311 311 310 308 305 302 301 301 302 303 303 303 302 302 301 301
301 302 302 302 302 301 301 301 301 302 302 302 301 301 301 302 302 302 302 302 302 303 303 303 302 303 303 303 303 303 303 303 304 304 304 304 304 304 303 303 302 301 301 301 302 306 308 310 311 312 312 311 312 312 312 313 313 313 313 313 313 312 312 311 311 310 310 310 310 309 307 305 302 301 300 301 302 302 302 301 301 300 300 300 299
301 301 301 302 302 302 301 301 301 301 301 302 302 301 301 301 302 302 302 302 302 302 303 303 303 303 303 303 303 303 303 304 303 304 304 304 304 304 304 304 303 302 302 301 300 301 303 306 309 310 311 311 312 312 312 312 313 313 312 312 311 311 310 310 309 308 307 306 305 303 301 301 300 301 301 302 301 301 300 300 299 299 299 299 298
300 300 301 301 301 301 301 301 301 301 301 301 301 302 302 301 302 302 302 302 302 302 302 302 303 303 303 303 303 303 303 304 304 304 304 304 304 304 304 304 304 302 302 302 301 300 300 302 305 306 307 308 309 310 310 310 311 311 310 310 309 309 308 307 305 304 302 301 301 300 300 301 301 301 300 299 299 299 298 298 298 298 298 298 298
299 299 300 300 301 301 301 301 301 301 301 301 301 301 301 301 301 302 302 302 302 302 302 303 303 303 303 303 303 303 303 303 303 303 304 304 304 304 304 304 304 303 302 302 301 300 300 302 303 304 304 305 307 308 308 308 309 309 308 308 307 306 304 302 301 301 301 300 300 300 300 300 299 299 298 298 298 298 298 297 297 297 298 298 297
297 298 299 300 300 300 301 301 301 301 301 300 300 301 301 301 301 301 302 302 302 303 303 303 304 304 304 304 304 303 303 303 303 303 304 304 304 304 304 304 304 304 304 303 301 300 300 300 301 302 303 304 305 305 306 305 305 305 305 304 303 302 301 300 300 301 301 300 300 299 299 298 298 298 298 298 298 297 297 297 296 296 297 297 297
296 297 297 298 299 300 300 300 301 301 301 300 300 300 300 301 301 302 302 302 302 303 303 304 304 304 304 304 304 304 304 304 304 304 303 303 304 304 304 304 304 304 304 303 302 301 300 299 299 300 300 301 301 301 301 301 301 301 300 300 300 300 300 300 300 299 299 299 299 298 298 298 298 298 298 297 297 297 297 297 297 297 297 297 297
297 296 296 297 298 299 299 300 300 300 301 301 300 300 300 300 300 301 301 302 302 302 302 303 303 303 303 303 303 304 304 304 304 303 303 303 303 303 303 303 304 304 303 303 301 300 300 300 300 300 299 299 299 299 299 299 299 299 299 299 299 299 299 299 299 299 299 298 298 298 298 298 298 297 297 297 297 297 297 297 297 297 297 297 297
297 297 296 296 297 297 298 299 299 299 300 301 301 300 300 300 300 300 300 301 301 301 301 301 301 301 301 302 302 302 302 303 303 303 303 303 303 303 303 303 303 303 303 302 301 301 300 300 300 300 300 300 300 299 299 299 299 299 299 299 299 298 298 298 298 298 298 298 297 298 298 298 297 297 296 297 297 297 297 297 297 297 298 298 297
297 296 296 296 296 296 297 298 298 298 299 299 300 300 300 300 300 300 300 300 300 300 300 300 300 301 301 301 301 301 301 301 302 302 302 302 302 302 302 302 302 302 302 301 301 301 300 300 300 300 300 300 300 300 299 299 299 299 298 298 298 298 298 298 299 298 298 298 298 298 298 297 297 296 296 297 297 297 297 298 298 298 298 298 297
296 295 296 296 296 295 296 296 297 297 298 298 299 299 299 299 299 299 299 300 299 299 299 299 300 300 300 300 300 300 300 300 300 301 301 301 301 301 301 302 302 301 301 301 301 301 300 300 300 300 300 300 300 300 300 300 299 299 299 299 299 299 299 299 298 298 297 297 298 298 298 297 296 296 296 297 297 297 297 297 298 298 298 298 297
297 295 295 295 295 295 295 295 296 296 296 297 297 298 298 299 299 299 299 299 299 299 299 299 299 299 299 299 299 299 299 299 300 300 300 300 299 300 301 301 301 301 300 300 300 301 301 300 300 300 300 300 300 300 300 300 299 299 299 299 299 299 299 299 298 298 297 297 298 297 297 296 296 296 296 297 297 297 297 297 298 298 298 297 297
297 296 295 294 294 294 294 294 295 295 296 296 296 297 298 298 298 298 298 298 299 299 299 300 300 300 300 300 299 299 299 299 299 299 299 299 299 299 300 300 300 300 300 300 300 300 300 300 300 300 300 300 300 300 300 300 299 299 299 299 299 299 299 298 298 297 297 297 297 297 297 296 296 296 296 297 296 296 297 297 297 297 297 297 297
296 296 295 294 294 294 294 294 294 295 295 295 295 296 297 297 297 298 298 298 298 298 299 299 299 299 299 299 299 299 299 299 299 299 299 299 298 299 300 300 300 301 301 301 301 300 300 300 300 300 300 300 300 300 300 300 299 299 299 299 299 298 298 297 297 297 297 297 297 297 297 296 296 296 297 297 296 296 296 296 296 296 297 297 298
295 296 295 294 294 294 293 293 293 294 294 295 295 295 295 296 296 297 297 297 297 297 298 298 298 298 298 299 299 299 298 298 299 299 298 298 298 299 299 300 300 301 301 301 301 300 300 300 300 300 299 299 299 299 299 299 299 299 298 298 298 298 297 297 297 297 297 297 297 296 296 296 296 296 296 296 296 296 296 296 296 296 297 297 297
294 295 295 295 294 294 293 293 293 293 294 294 294 295 295 295 296 296 296 296 297 297 297 297 298 298 298 298 298 298 298 298 298 298 298 298 298 299 299 300 300 300 301 300 300 300 300 300 299 299 299 299 299 299 299 298 298 298 298 297 297 297 297 296 296 296 297 297 296 296 296 295 295 296 296 296 296 296 296 296 296 297 297 297 297
293 294 295 295 294 293 293 293 293 293 293 294 294 294 294 295 295 295 296 296 296 296 297 297 298 298 298 297 297 297 298 298 298 298 298 298 299 299 299 300 300 300 300 300 299 299 300 300 299 299 299 298 298 298 298 297 297 297 296 296 296 296 296 296 296 296 297 296 296 296 295 295 295 296 296 296 296 296 296 297 297 297 296 297 297
292 293 294 295 294 294 293 293 293 292 292 293 293 294 294 294 294 295 295 296 296 296 297 297 297 297 297 297 297 297 297 297 298 298 298 298 299 299 299 300 300 300 300 299 299 299 299 300 300 299 299 298 298 297 297 296 296 295 295 295 295 295 295 296 296 297 297 296 296 295 295 295 295 295 296 296 296 296 296 296 296 296 296 297 297
291 292 293 294 294 294 293 293 293 292 292 292 293 293 293 294 294 294 295 295 296 296 296 296 297 297 296 296 296 296 297 297 297 298 298 298 299 299 299 299 300 300 299 299 299 299 299 299 299 299 299 299 298 297 296 295 295 294 294 294 294 295 295 296 296 296 296 296 295 294 294 294 294 295 295 295 295 295 295 296 296 296 296 297 297
290 291 292 292 293 294 294 293 293 292 292 292 292 292 293 293 294 294 294 295 295 295 295 295 296 296 296 296 296 296 296 296 297 297 298 298 299 299 299 299 299 299 299 299 299 299 299 299 299 299 299 298 298 297 296 295 295 295 294 294 294 295 295 295 296 296 295 295 294 294 294 294 294 294 294 294 294 295 295 295 296 296 296 297 296
289 290 291 291 292 293 294 293 292 292 292 292 292 292 292 293 293 293 294 294 294 294 294 295 295 295 295 295 295 295 295 296 296 297 298 298 298 298 298 298 298 298 298 298 298 298 298 298 299 299 298 298 297 297 296 295 295 294 293 293 293 293 294 294 294 294 294 293 293 293 293 294 294 294 294 294 294 294 294 295 295 296 296 296 295
288 289 290 290 291 292 293 293 292 291 291 291 291 291 292 292 292 293 293 293 294 294 294 294 294 295 295 295 295 295 295 295 296 297 297 297 298 298 297 298 297 297 297 297 297 297 297 297 298 297 297 297 296 295 295 294 293 292 291 291 292 291 291 292 293 293 293 292 292 292 292 293 293 293 293 293 293 293 294 294 295 295 295 295 294
287 288 288 289 290 291 292 293 292 292 291 291 291 291 291 291 292 292 293 293 293 293 293 294 294 294 294 294 294 294 294 295 296 296 297 297 297 297 297 297 297 297 296 296 296 296 296 296 296 296 296 295 294 293 292 292 291 291 291 291 290 290 290 290 291 291 291 291 291 291 291 292 292 292 292 293 292 292 293 293 294 294 295 295 294
287 287 287 288 289 290 291 292 292 292 291 290 290 290 291 291 292 292 292 292 293 293 293 293 294 294 294 294 294 294 294 295 295 296 296 296 296 296 296 296 296 296 295 295 295 295 295 295 295 294 294 294 292 291 291 291 291 291 290 290 290 289 289 289 289 289 289 290 291 291 291 291 292 292 292 292 292 292 292 293 293 294 294 294 294
286 286 286 287 288 288 289 290 291 291 291 290 289 289 290 291 291 292 292 292 293 293 293 293 294 294 294 294 294 294 294 294 295 295 295 295 295 295 295 295 295 295 294 294 294 294 293 293 293 293 292 292 291 290 290 291 291 291 290 290 289 289 288 288 288 288 289 289 290 291 291 292 292 292 292 292 292 292 292 293 293 293 293 293 293
286 286 286 286 287 287 288 289 290 291 291 290 289 289 289 290 291 291 292 292 292 292 293 293 293 294 293 293 293 293 293 294 294 294 294 294 294 294 294 294 294 294 293 293 293 293 292 292 292 291 291 290 290 289 289 289 289 289 290 289 289 288 288 287 287 287 288 289 290 291 291 291 292 292 292 291 292 292 292 292 293 293 293 292 291
285 285 285 286 286 286 287 288 289 290 290 289 289 288 289 290 290 291 291 292 292 292 292 293 293 293 293 293 293 293 292 292 293 293 293 293 293 293 293 293 293 293 293 292 292 291 291 290 290 289 289 289 289 288 288 288 288 288 289 288 288 288 287 287 287 287 288 289 290 290 291 291 291 291 291 291 292 292 292 292 293 293 292 291 290
283 283 284 285 285 285 286 287 287 288 289 289 288 288 289 289 290 290 291 291 291 292 292 292 292 293 293 293 293 292 292 292 292 292 292 292 292 292 292 292 292 292 292 291 291 290 289 289 289 288 288 288 288 288 288 288 288 288 288 287 287 287 287 287 287 288 288 289 290 290 290 290 290 290 291 291 291 291 292 292 292 292 291 291 290
282 282 282 283 284 284 285 286 286 287 288 288 288 289 289 289 290 290 291 291 291 291 290 291 291 292 292 292 292 292 292 292 292 291 291 291 291 291 291 291 291 291 290 290 290 289 289 288 288 288 288 288 288 288 288 288 288 287 288 287 287 287 287 287 287 287 288 289 289 290 290 290 290 290 290 291 291 291 291 291 291 291 291 291 290
Wind_Speed
41 42 43 45 47 47 47 46 45 44 42 40 40 40 39 37 36 34 31 29 28 27 26 26 26 26 26 25 25 26 25 23 23 24 24 24 23 20 19 20 22 23 22 21 20 22 24 26 27 27 27 26 26 27 27 26 28 30 31 33 36 38 42 45 44 40 38 39 40 40 39 38 38 39 39 39 40 41 41 41 41 40 40 40 39
40 41 42 43 44 45 44 43 42 41 40 40 41 40 39 37 35 33 30 28 27 27 26 26 27 27 26 26 26 26 24 23 22 23 23 22 20 17 17 19 20 20 20 20 20 21 23 25 25 24 22 22 23 24 24 24 26 28 30 33 36 37 39 42 42 37 33 32 32 32 33 34 33 33 35 37 39 41 42 42 42 42 41 42 41
38 38 39 40 41 41 40 39 39 40 40 41 41 40 38 37 35 32 30 29 28 27 27 27 27 27 26 26 27 26 24 22 21 21 21 20 18 17 17 17 17 16 15 16 17 19 21 24 23 20 19 21 23 24 24 24 25 27 31 35 36 37 40 43 42 37 33 31 31 32 32 32 31 32 33 36 40 42 43 43 43 43 43 43 42
35 36 36 36 37 37 37 38 39 40 41 41 40 39 37 36 34 32 31 30 29 27 27 28 27 27 27 27 27 25 23 21 20 20 21 19 18 17 18 18 15 13 12 12 14 15 18 22 22 20 19 21 23 24 24 25 26 27 30 34 37 39 41 42 40 36 34 32 31 30 29 28 29 31 32 35 39 41 42 43 43 43 43 43 43
33 33 33 34 35 35 36 37 39 39 40 39 38 37 36 35 33 32 31 30 28 28 28 28 28 28 28 27 26 24 22 20 19 20 20 19 17 18 19 18 15 12 11 12 13 14 16 19 21 20 19 20 22 23 24 25 27 28 32 35 38 41 42 41 38 35 34 32 29 27 26 27 28 29 30 32 36 38 40 42 42 42 42 43 44
31 31 32 32 33 34 35 37 38 38 38 37 37 36 36 34 33 33 32 30 29 29 29 29 28 28 28 27 26 24 21 20 19 19 20 19 17 17 18 18 16 15 14 13 14 15 16 18 19 19 18 18 20 22 23 24 25 28 32 35 37 39 40 38 34 33 34 32 27 25 26 27 27 28 27 27 30 33 36 38 39 40 42 43 43
29 30 30 31 32 33 35 36 36 36 36 36 36 36 35 34 33 33 31 30 29 29 29 29 28 28 27 26 26 24 21 20 20 20 20 20 19 18 18 18 17 17 16 15 15 15 16 18 19 19 18 17 17 19 21 23 24 25 29 34 37 37 36 33 31 31 32 30 27 26 26 25 25 25 25 25 27 29 32 34 37 37 39 40 38
29 29 30 31 32 32 33 33 33 34 35 35 36 35 34 34 33 32 31 30 30 29 29 28 27 27 27 26 26 24 21 20 20 19 20 21 21 19 18 18 18 18 18 17 17 16 16 17 18 18 19 18 17 18 19 21 24 26 29 33 35 34 32 32 30 29 28 27 26 26 25 24 24 24 24 24 26 27 28 30 31 31 32 34 35
28 30 31 31 31 31 31 32 33 34 35 36 36 35 34 33 32 31 30 29 29 29 28 28 27 27 27 26 25 24 23 21 20 19 19 20 20 19 18 17 17 18 18 18 17 17 16 17 18 18 18 19 19 19 18 20 23 26 28 30 32 32 31 30 28 27 27 26 26 25 25 25 25 25 25 25 25 24 23 25 26 26 27 30 31
28 29 30 29 29 29 31 32 33 35 36 36 35 34 34 33 32 31 30 29 29 29 28 29 28 28 27 26 25 25 24 21 19 19 19 18 18 17 16 15 16 16 17 17 16 16 16 17 17 17 18 19 20 21 20 20 23 25 27 28 30 31 30 29 28 26 26 25 25 24 25 25 25 24 24 23 22 22 23 24 25 24 25 27 27
27 28 28 27 28 29 31 32 33 35 35 35 35 34 33 33 32 30 30 29 29 28 29 29 29 28 27 25 24 24 24 21 19 18 19 19 18 17 16 15 15 15 16 16 16 16 16 16 17 17 16 17 19 20 20 20 22 25 28 29 28 28 27 27 27 26 25 24 24 25 25 25 24 23 22 22 22 23 24 24 24 24 25 26 26
25 26 26 27 28 29 31 32 34 35 35 35 34 33 33 33 31 30 30 29 28 28 29 29 29 28 27 25 24 24 23 21 19 18 19 20 20 19 18 17 17 17 17 15 15 15 15 16 16 16 15 15 17 19 20 19 21 25 28 28 27 26 25 24 24 24 24 24 25 25 25 25 24 23 23 22 22 23 25 25 25 25 25 25 24
25 25 26 27 28 29 30 32 34 35 35 34 33 33 32 32 31 30 30 29 28 28 28 27 27 27 27 26 25 23 22 22 20 18 18 20 22 20 19 19 19 18 16 15 14 16 16 16 16 16 15 15 16 19 19 19 22 26 27 27 25 24 24 23 22 21 21 23 25 25 24 24 24 23 22 22 23 25 25 25 25 24 24 23 22
24 26 27 27 26 27 30 32 33 33 33 33 33 32 32 31 31 30 29 29 28 28 27 26 26 26 25 25 24 23 22 21 21 19 18 19 23 22 21 20 19 17 16 15 15 16 17 17 17 17 16 15 16 17 18 20 24 27 26 25 25 24 24 23 23 22 22 22 24 24 24 24 24 22 21 22 23 22 22 21 21 20 20 20 20
20 24 26 27 27 28 30 31 32 32 32 33 32 32 31 31 31 30 29 29 28 27 26 25 24 24 23 23 23 22 21 21 20 20 18 18 22 23 22 21 18 17 16 16 15 16 16 16 17 17 17 17 16 16 18 21 24 25 24 24 25 25 25 25 24 24 24 23 24 24 24 23 22 21 20 20 20 19 19 19 18 18 18 19 19
16 20 24 26 27 28 28 30 31 31 32 33 32 32 32 32 31 30 30 29 28 26 25 24 24 23 22 22 21 21 20 20 19 19 18 18 20 22 23 22 20 18 17 16 16 15 15 16 16 17 18 18 18 19 21 22 23 24 25 26 26 26 27 26 25 24 24 23 23 22 20 19 20 21 21 20 20 20 20 20 21 21 21 21 21
11 15 19 23 25 26 27 29 29 31 32 33 33 32 32 32 31 31 30 30 28 27 26 24 24 23 22 22 21 20 19 19 19 19 19 19 20 22 24 23 22 21 18 17 16 16 16 16 16 17 17 19 20 22 24 25 26 27 27 27 27 27 26 26 25 24 23 23 22 20 19 19 20 20 21 22 22 22 22 23 23 22 22 22 21
9 11 14 18 22 25 26 27 29 31 33 33 32 32 32 32 31 31 30 29 28 27 25 24 24 23 22 22 20 19 18 18 18 18 18 19 20 21 23 24 24 23 21 18 17 17 17 17 17 17 18 18 19 21 22 24 25 25 25 24 25 25 24 24 24 24 24 24 23 22 22 21 20 20 21 22 22 23 23 23 22 22 22 21 19
9 11 12 13 18 22 25 27 29 30 31 31 31 31 31 31 30 30 29 28 27 26 25 24 23 23 22 21 20 19 19 18 18 18 18 19 20 21 22 24 25 25 24 22 20 19 19 19 19 18 18 17 18 19 20 21 21 22 22 23 24 24 23 23 24 24 24 24 23 22 21 20 19 20 21 22 22 23 22 22 21 21 21 20 19
8 11 12 13 16 19 24 27 29 30 30 29 29 30 30 30 30 29 29 28 27 26 25 24 23 23 23 22 21 20 20 19 19 19 19 19 20 21 22 23 25 26 26 25 23 21 20 21 21 20 19 19 19 20 20 21 21 21 22 23 24 23 23 23 24 23 22 21 20 19 19 20 21 22 23 24 24 23 22 21 21 21 20 20 20
8 10 12 13 15 17 21 25 28 30 29 28 29 30 30 29 29 28 28 28 28 27 26 25 25 24 24 23 22 21 20 20 20 19 20 20 20 21 22 23 24 25 26 27 26 25 23 23 22 21 21 21 21 22 22 22 22 23 24 24 23 22 22 23 22 21 20 19 19 20 21 22 24 25 26 26 25 23 22 22 22 22 22 22 22
12 12 13 13 14 15 18 21 25 28 29 30 31 31 30 29 28 28 28 28 28 27 27 26 26 26 26 25 24 23 21 21 20 20 20 20 21 21 22 23 23 24 25 27 27 27 26 25 24 23 22 22 22 22 22 22 22 23 22 21 20 19 19 19 19 19 20 20 21 23 25 26 27 27 27 26 25 23 23 23 23 23 23 23 22
17 16 16 16 16 15 15 17 21 25 28 31 33 33 32 31 30 29 29 29 29 28 27 27 27 27 27 27 26 24 23 22 22 21 21 21 21 22 22 23 24 25 26 27 28 28 27 26 25 24 23 23 23 22 22 22 22 21 20 19 19 19 19 19 20 20 21 23 25 27 28 29 29 28 27 26 24 23 23 23 23 23 24 23 23
19 19 17 18 19 18 16 16 18 22 26 29 32 33 34 34 33 32 32 32 32 31 30 29 28 28 28 28 27 26 25 24 23 23 22 22 22 22 22 23 24 26 27 27 27 28 29 27 26 25 24 24 23 23 23 23 22 22 21 21 21 22 22 23 23 24 25 27 29 30 30 30 28 27 25 24 24 24 24 25 24 24 23 23 23
20 20 18 18 19 20 19 18 18 20 23 27 31 33 34 35 35 35 35 35 36 35 34 33 32 31 30 29 29 28 27 26 25 24 24 23 23 23 23 24 25 26 27 27 27 28 28 28 28 28 27 26 25 25 24 23 23 23 23 23 24 24 25 26 27 28 29 30 30 30 29 27 26 25 25 25 26 26 26 26 25 24 24 24 23
20 20 19 18 19 20 22 22 20 19 21 26 30 32 33 34 35 35 36 37 37 37 37 36 35 34 33 31 30 30 30 29 27 26 25 25 25 24 25 25 26 27 27 28 27 27 27 27 28 29 30 29 28 27 27 26 25 25 25 26 28 29 30 30 30 30 29 29 28 27 26 25 25 26 26 26 27 27 27 26 26 25 25 24 23
18 20 21 20 20 20 22 23 23 21 21 24 27 30 32 34 35 36 38 39 38 38 37 36 36 35 34 33 33 33 33 32 30 29 28 27 26 26 27 27 27 28 29 29 29 28 28 28 28 29 29 29 29 29 29 30 29 29 29 30 31 32 31 30 29 28 27 27 26 25 25 26 26 26 25 25 25 25 24 24 24 25 25 24 24
15 18 21 22 22 22 21 22 23 24 23 23 25 28 31 34 36 37 39 39 39 39 38 38 37 35 34 33 34 36 36 35 34 32 30 29 28 28 28 28 29 29 30 30 31 30 29 29 30 31 32 32 33 33 33 33 34 34 34 34 33 32 30 29 28 28 28 27 26 25 26 26 26 25 24 23 22 22 21 21 22 23 23 23 24
15 17 20 23 25 24 22 21 22 24 25 25 25 26 28 31 34 36 37 37 38 38 38 37 36 35 34 34 34 36 36 35 34 33 31 30 29 28 27 27 28 29 31 31 31 31 30 30 31 33 34 35 36 36 36 35 35 34 34 34 33 32 31 30 29 29 28 27 26 27 26 26 25 23 22 22 22 22 21 20 20 20 20 21 21
17 17 18 21 24 25 25 23 21 22 24 25 25 26 26 28 31 33 34 35 36 36 36 36 35 34 35 35 35 35 34 33 33 33 33 32 31 30 30 30 30 30 31 32 33 33 33 33 33 33 34 35 36 36 36 35 34 34 34 33 33 32 30 29 29 28 27 26 27 27 26 25 24 22 23 24 24 23 22 21 20 20 20 20 20
19 18 18 20 22 25 27 26 24 24 25 25 26 26 26 27 29 31 32 33 34 35 35 36 35 35 35 35 34 34 34 33 33 34 34 33 33 33 33 33 33 32 32 33 34 34 34 34 35 35 35 36 36 35 35 34 34 34 34 33 33 31 30 29 29 27 27 27 27 26 25 24 23 24 25 26 25 24 23 22 22 21 20 19 19
19 18 18 19 21 23 26 28 28 27 28 29 29 29 29 29 30 31 32 32 33 34 35 35 35 34 34 33 33 32 32 32 31 32 33 34 35 35 34 34 34 34 35 34 34 35 35 35 36 36 36 37 37 36 35 34 33 33 33 33 32 31 30 29 28 27 27 27 26 25 24 24 24 25 26 26 26 25 25 23 22 21 21 20 19
18 18 17 18 19 21 24 27 29 29 28 30 31 32 32 33 33 33 33 33 34 35 36 36 36 35 34 33 32 30 29 29 28 29 31 33 34 32 33 34 35 36 37 37 36 36 36 37 37 37 37 37 37 36 36 34 32 32 32 31 31 30 29 28 27 27 27 26 25 23 24 24 25 26 27 26 25 25 24 23 22 22 21 20 19
17 17 17 17 19 20 21 23 27 29 28 28 30 32 33 33 33 32 32 33 34 36 36 36 36 35 34 32 30 29 28 28 28 28 29 32 32 30 30 33 34 35 35 36 36 36 37 37 37 37 37 37 37 37 35 34 32 32 32 31 30 29 28 27 27 27 26 25 24 23 24 26 26 27 28 27 26 25 24 23 22 22 20 19 19
17 17 16 16 18 19 19 20 23 26 27 27 28 30 32 31 31 30 31 31 33 34 35 34 34 33 33 32 30 29 28 27 27 28 29 30 31 29 29 31 34 35 35 35 35 35 36 37 37 37 36 36 36 36 35 33 32 32 32 31 31 30 29 28 28 27 25 24 23 24 26 27 27 27 28 27 26 25 24 23 22 21 19 19 20
16 16 16 16 17 18 19 19 20 23 25 25 25 26 28 29 29 29 30 30 31 32 32 32 32 31 30 30 30 29 29 28 28 28 28 29 30 32 32 33 35 37 37 37 36 35 35 35 35 35 35 35 35 35 34 32 31 31 31 31 31 30 29 28 28 26 25 24 24 25 27 29 29 28 28 27 26 25 24 23 22 21 20 20 20
16 15 15 16 17 18 18 19 19 20 22 23 23 23 25 27 27 28 29 30 31 31 31 31 30 29 29 29 29 29 30 30 29 29 28 28 30 33 34 33 34 36 37 36 36 35 35 35 35 34 34 34 33 32 32 30 29 29 29 30 30 29 29 28 27 26 26 26 26 28 29 30 30 29 28 28 27 26 24 23 23 23 21 20 20
15 15 15 16 17 18 18 18 18 18 20 21 22 23 24 26 27 28 28 29 29 30 30 29 28 27 27 27 27 28 30 31 32 31 31 30 32 34 35 33 33 35 36 36 36 35 35 35 34 33 31 31 30 30 29 28 28 28 29 29 30 30 30 29 29 28 28 28 29 30 31 31 30 29 29 29 29 27 25 23 22 22 21 20 21
14 15 15 16 17 18 19 19 18 18 19 20 21 22 24 25 27 28 28 28 28 28 28 28 27 26 25 25 25 27 31 34 36 36 35 34 34 35 35 34 34 34 35 35 35 35 34 34 32 31 29 29 28 27 26 25 26 27 28 29 30 31 31 31 31 31 31 30 30 31 32 32 30 29 29 29 28 26 24 22 21 21 22 22 24
15 14 14 15 16 17 19 19 19 19 19 20 21 22 23 25 26 27 27 27 27 27 27 26 25 24 23 24 25 28 32 35 37 37 36 35 35 36 36 34 33 33 33 34 35 34 33 32 30 29 28 27 26 24 23 23 24 25 27 28 29 30 31 32 32 33 32 32 31 32 33 32 31 29 28 28 27 25 23 22 22 22 23 24 25
15 15 14 14 15 17 19 20 20 19 19 19 20 21 23 24 25 25 25 25 25 25 25 24 23 22 22 23 24 27 30 33 35 36 35 34 35 36 36 34 33 32 33 33 33 32 30 29 28 27 25 24 23 22 21 22 23 24 26 27 28 30 31 32 33 33 32 32 32 32 32 32 31 30 29 27 26 25 24 24 23 23 25 26 27
15 15 15 14 15 16 18 19 19 19 19 20 20 21 22 23 23 24 24 24 24 24 24 23 22 21 21 22 23 26 29 32 34 35 35 35 36 36 35 33 33 32 32 31 30 29 28 26 25 24 23 22 22 22 22 23 24 25 25 26 28 30 31 32 32 32 31 31 30 30 31 31 31 30 29 27 26 26 26 25 25 26 27 28 28
15 15 15 15 14 15 17 19 19 18 19 19 20 20 20 21 22 23 24 24 24 24 24 23 22 22 22 22 23 25 29 32 34 35 35 35 35 35 33 32 32 31 30 29 28 27 26 24 23 22 22 22 22 23 23 23 23 23 23 24 26 27 29 29 29 29 29 29 29 29 30 30 30 30 28 27 27 27 26 26 26 27 28 29 29
14 14 15 15 14 14 16 18 18 18 17 17 18 19 19 21 22 23 24 25 25 24 24 23 23 23 23 23 23 25 29 32 34 35 34 34 33 32 31 30 30 30 29 28 27 26 25 23 22 22 22 22 23 22 22 21 21 22 22 23 24 25 26 27 27 28 28 28 28 28 29 29 29 29 28 28 28 27 27 27 28 28 28 29 29
15 14 15 14 14 13 14 16 18 17 16 16 16 17 18 20 22 23 25 25 25 24 23 22 22 23 24 25 25 26 28 30 32 32 32 31 30 29 29 28 28 28 28 27 26 25 23 22 22 22 23 23 22 22 21 22 22 23 23 23 22 24 25 26 25 25 26 26 27 27 27 28 28 28 28 27 27 27 27 28 29 29 29 29 29
15 15 15 14 14 13 12 14 16 17 16 15 14 15 17 19 21 22 24 24 24 24 23 22 22 23 24 25 26 27 27 28 29 30 30 29 28 28 27 27 27 27 26 25 23 22 22 22 22 23 23 22 22 22 23 23 24 24 23 22 21 21 22 24 25 25 25 25 26 26 26 27 28 28 27 25 25 26 27 29 29 29 29 29 28
15 16 16 15 14 13 12 12 14 16 16 14 13 14 16 17 19 20 21 22 23 23 23 22 22 22 23 24 26 26 27 27 28 29 29 29 28 27 27 26 25 25 23 22 21 21 21 21 21 22 22 22 22 22 22 22 22 22 22 22 21 20 19 20 23 25 25 24 25 26 26 27 27 26 25 24 25 26 26 27 28 29 29 28 27
15 16 16 15 14 13 12 12 13 15 15 14 12 13 15 16 16 18 19 21 23 24 23 22 21 21 22 23 25 26 27 28 28 29 30 29 27 26 25 25 23 22 21 21 21 20 20 20 20 20 20 20 20 20 19 20 20 20 19 19 20 22 22 22 22 23 24 24 25 26 26 26 26 25 24 25 25 25 24 25 27 28 28 27 26
16 16 16 16 14 12 12 11 12 13 14 13 12 13 14 15 16 17 18 21 23 24 23 22 20 20 20 21 23 25 27 29 29 29 29 27 25 24 23 23 22 21 21 21 21 20 20 20 19 18 17 18 19 19 20 21 22 21 19 18 18 20 22 22 22 22 24 25 26 26 26 26 25 25 25 26 25 24 23 24 26 27 27 26 25
18 18 17 16 15 13 12 11 11 12 13 13 13 14 15 17 18 19 20 22 24 24 23 21 20 19 19 20 22 24 26 28 29 28 27 24 22 21 21 22 23 23 23 23 23 23 23 22 21 20 21 21 21 19 18 19 19 19 18 17 17 18 20 22 23 24 25 26 26 26 26 26 26 26 27 26 25 24 24 24 25 26 25 25 24
19 19 18 16 15 14 12 12 12 12 13 14 15 17 18 20 21 22 23 24 25 25 24 22 20 20 21 21 22 23 25 26 27 26 25 23 22 22 23 24 24 25 25 25 25 25 24 23 23 22 21 21 19 18 17 17 17 17 16 16 15 16 19 23 25 25 26 27 26 26 27 27 27 28 28 27 25 24 25 25 25 24 23 23 23
Wind_Direction
232 232 231 230 230 229 227 226 226 226 225 221 215 210 210 212 211 211 212 213 215 217 218 220 223 225 228 229 230 233 235 238 244 251 255 256 256 257 262 266 265 260 256 253 248 243 244 247 249 250 251 251 251 252 252 249 246 244 241 237 235 233 230 228 228 228 225 222 221 219 220 221 225 232 237 240 241 241 240 239 238 241 245 247 244
232 232 231 229 228 227 225 224 223 222 218 213 210 209 210 211 211 211 212 214 216 217 218 221 224 226 227 228 229 232 234 238 245 250 251 250 249 253 258 258 255 253 252 252 248 243 243 246 247 247 249 248 246 246 246 245 241 240 242 241 237 235 233 228 225 222 217 217 220 223 225 228 234 240 245 249 249 247 246 246 245 246 250 250 247
233 232 230 227 226 224 223 221 219 216 211 208 207 208 209 209 209 210 211 214 215 216 218 222 224 226 225 225 227 230 232 238 244 246 244 243 244 246 247 246 244 246 251 254 252 247 245 246 244 239 240 244 245 244 244 245 244 242 243 242 238 237 233 227 223 221 220 224 228 229 232 235 239 244 248 252 252 250 249 249 249 251 253 253 250
234 232 228 225 222 221 219 217 214 210 207 206 206 207 207 207 207 209 212 213 214 215 218 222 223 223 221 222 225 227 230 237 242 242 238 236 237 238 236 235 235 237 245 250 251 249 249 249 243 233 233 239 242 241 241 243 244 243 242 239 236 235 231 224 223 225 225 226 229 232 234 237 240 245 248 249 249 249 249 249 250 252 253 253 252
232 228 224 220 218 216 214 212 210 208 206 206 206 206 206 206 206 209 212 212 213 215 218 220 221 220 219 221 222 224 228 236 240 237 233 231 232 232 231 230 230 233 238 243 245 245 247 250 247 239 235 238 238 235 236 242 245 244 241 238 234 233 231 227 228 228 225 226 232 237 239 240 242 244 246 247 247 248 248 249 250 252 252 252 253
229 224 218 215 212 210 208 208 207 207 207 206 206 205 205 205 207 210 212 211 212 214 216 217 218 218 219 219 220 222 226 232 236 232 227 226 226 227 229 229 231 235 241 243 242 242 242 245 248 245 239 236 235 234 235 240 244 244 240 236 232 231 229 228 226 224 224 228 236 242 243 243 243 243 243 243 244 245 247 249 250 251 251 252 254
224 218 214 211 208 206 206 206 207 208 208 207 206 205 204 206 209 211 211 211 211 213 214 215 216 216 218 218 217 219 223 228 231 228 223 222 223 225 226 229 234 239 244 245 243 243 243 242 243 244 239 234 236 240 241 241 241 242 239 233 229 227 224 222 221 223 226 230 236 240 241 240 241 242 241 240 241 243 245 247 248 249 251 253 255
219 214 212 209 208 207 207 208 208 208 208 207 206 204 204 207 210 211 211 211 211 212 213 214 215 215 217 217 216 218 221 225 228 227 223 222 223 226 227 230 236 241 242 243 242 241 242 242 242 241 240 238 238 239 243 245 244 239 234 229 226 224 220 218 221 224 226 228 232 234 235 235 237 239 239 238 238 239 241 243 246 247 249 252 254
217 214 213 212 211 211 210 210 210 209 208 206 204 204 205 207 209 209 210 209 210 211 213 213 214 215 217 217 217 218 221 224 226 226 223 221 222 224 227 231 237 243 245 245 244 242 240 240 239 238 239 240 240 239 241 246 245 235 227 225 224 223 221 220 221 222 221 224 226 227 229 233 235 236 236 236 237 240 242 243 245 246 247 250 252
219 217 217 216 215 216 214 213 211 209 206 204 203 204 205 207 208 208 208 209 209 211 213 213 214 215 217 218 218 219 221 223 224 223 219 218 219 217 220 229 235 244 249 249 249 247 241 238 236 234 235 236 238 239 238 242 244 233 221 219 219 218 219 219 220 220 221 222 223 225 228 231 232 234 236 238 240 242 244 244 245 246 248 251 253
224 222 220 219 219 218 216 214 211 207 204 202 202 204 205 206 207 207 208 209 210 212 213 214 214 214 216 218 219 221 221 222 224 222 216 214 214 211 212 221 231 240 246 247 250 250 242 235 232 230 231 232 234 236 234 236 240 232 222 220 221 219 219 220 220 221 223 225 227 230 232 233 235 237 239 240 241 243 244 245 247 249 253 254 253
228 226 224 223 222 219 214 211 207 204 202 201 202 203 204 205 206 207 209 210 211 211 211 213 213 213 215 217 219 221 222 223 224 222 217 213 212 210 208 213 222 231 238 241 241 241 236 231 230 230 228 227 231 233 230 232 236 231 225 226 227 224 226 231 233 232 231 232 234 236 237 238 240 241 243 244 244 245 246 248 250 253 254 253 253
230 228 227 227 226 221 214 208 205 202 202 202 203 203 203 205 207 209 211 210 209 208 208 210 211 212 214 215 218 220 220 222 224 224 219 214 212 210 209 211 215 220 228 233 230 229 228 227 230 230 226 226 233 233 229 231 234 229 225 225 226 227 232 238 242 243 241 240 242 243 243 243 245 247 249 250 250 249 249 250 252 253 252 252 254
235 232 230 230 229 223 215 209 205 204 204 204 203 203 203 206 209 210 211 209 206 205 205 207 208 210 213 214 216 218 218 220 222 223 222 215 212 212 211 210 210 212 218 224 223 223 223 225 228 229 226 224 229 231 229 229 227 222 220 223 226 231 235 236 237 239 238 237 239 241 243 246 248 251 252 251 250 250 250 249 249 249 249 250 251
243 240 237 234 232 226 218 212 208 206 206 205 204 204 205 208 210 211 210 208 206 205 204 204 206 209 211 213 215 217 218 219 220 221 221 216 213 213 210 207 205 204 207 213 216 216 218 222 225 226 226 224 222 224 227 227 223 220 222 226 230 233 235 236 237 237 235 235 237 239 241 242 242 241 239 239 239 238 238 238 238 239 240 240 241
250 246 244 241 236 229 221 214 210 207 206 205 205 205 207 209 210 210 209 208 207 207 205 205 206 208 211 213 215 216 218 220 221 221 220 216 213 211 208 205 202 200 200 203 206 208 209 213 216 217 220 222 222 225 226 225 224 225 227 231 233 235 236 236 235 235 234 235 236 236 235 233 230 228 225 223 224 225 226 228 230 231 234 236 240
265 254 249 246 241 232 223 216 212 208 206 207 208 208 209 210 210 209 209 209 208 208 206 205 205 207 211 214 216 217 218 220 222 223 222 218 213 211 209 206 202 200 199 199 200 202 203 206 209 209 211 214 219 225 228 228 230 232 233 234 234 233 232 230 229 227 225 224 223 222 221 220 220 220 220 220 222 224 226 229 232 235 238 241 245
296 276 260 251 244 235 226 219 214 211 209 209 210 210 211 211 209 209 210 211 210 209 207 206 206 208 210 213 216 218 220 223 224 225 226 224 219 215 213 209 205 201 201 201 200 200 200 202 205 207 207 207 212 219 224 227 229 231 230 229 226 223 221 220 218 215 213 213 214 214 215 216 218 222 224 226 228 230 232 235 239 243 245 248 252
308 301 287 266 249 239 230 223 218 216 214 213 213 214 213 212 211 212 212 213 213 213 212 210 209 209 210 212 214 215 218 222 225 225 227 228 226 223 218 214 210 205 202 202 202 201 199 200 203 205 205 206 208 212 216 219 220 220 219 218 216 214 211 211 211 210 211 213 215 217 219 223 227 231 234 236 238 239 241 243 246 248 251 254 256
293 296 293 279 261 248 239 232 227 222 218 216 217 218 217 215 215 215 215 216 216 216 216 214 212 211 212 212 213 214 215 219 223 226 227 227 229 229 226 222 218 212 207 205 204 203 201 200 200 202 203 204 206 208 210 211 211 211 211 212 212 209 207 209 212 213 214 217 221 224 228 231 235 239 241 243 245 247 248 251 254 256 258 258 259
283 282 279 275 268 258 249 242 236 231 225 221 221 222 222 221 220 218 218 219 219 218 217 216 214 213 214 214 213 214 215 218 222 226 228 228 229 230 230 230 227 222 215 210 207 205 205 204 202 202 203 203 205 207 208 209 210 211 211 212 212 211 211 213 215 216 217 221 226 230 234 238 241 242 244 246 248 250 253 255 258 260 260 260 262
289 284 275 269 265 261 255 248 242 237 233 228 226 225 225 225 223 222 222 222 222 221 220 218 216 215 215 214 213 213 214 216 220 224 227 230 232 232 232 233 232 228 223 218 214 210 207 206 206 206 205 205 206 208 209 210 211 212 213 212 212 211 211 214 217 220 223 227 231 236 241 244 246 246 247 248 249 251 254 255 256 257 258 258 259
279 281 278 269 260 256 254 249 243 239 236 235 232 230 229 228 227 226 225 224 224 224 223 222 221 219 217 215 214 213 213 215 217 221 225 229 232 234 234 233 232 231 229 227 224 219 213 209 209 210 211 210 210 211 211 212 213 214 216 217 217 218 218 220 224 228 233 236 239 242 245 247 248 249 250 252 254 254 255 255 254 254 254 253 253
270 270 273 269 261 254 249 245 242 238 235 235 235 234 233 232 232 232 231 230 228 227 226 225 224 222 221 218 216 215 214 215 217 220 223 227 231 235 236 235 234 234 233 231 229 225 221 216 213 213 215 215 216 217 218 219 219 220 221 222 224 224 226 229 234 238 241 243 244 245 246 247 249 252 256 258 259 258 256 254 251 249 248 249 249
268 264 263 262 258 253 248 243 240 237 235 233 233 233 233 233 234 234 234 233 231 227 225 224 224 223 222 221 220 219 218 218 218 219 222 226 229 233 237 238 237 236 235 234 231 228 225 221 218 218 218 219 220 221 222 223 221 221 223 225 226 227 230 234 239 241 241 243 244 245 247 251 255 258 260 259 258 256 254 251 247 242 241 243 243
271 264 258 255 252 249 246 242 238 238 237 234 232 232 232 233 233 232 232 231 230 227 225 224 224 224 224 224 224 223 222 221 220 220 222 226 229 231 234 237 238 237 237 236 234 230 226 223 221 221 222 222 223 224 225 225 223 221 223 226 230 234 238 241 242 241 241 242 244 247 251 256 258 258 258 257 256 254 251 246 241 237 235 236 236
273 264 256 251 247 244 243 241 238 238 238 237 235 232 231 231 232 231 229 227 226 224 223 223 223 224 226 228 228 227 226 224 223 221 222 225 229 231 232 234 236 237 236 234 232 229 225 221 220 221 222 222 223 224 225 225 225 224 226 230 236 239 241 242 242 242 244 247 249 252 254 254 255 255 256 254 251 248 243 238 233 230 230 231 232
276 264 253 246 243 241 239 238 238 237 237 239 238 234 230 228 227 226 226 225 223 221 220 220 221 223 226 229 230 230 229 227 226 225 224 225 228 230 231 233 235 236 237 235 231 227 223 220 219 219 220 221 221 223 225 226 227 229 230 233 237 239 239 239 239 241 244 246 246 247 248 249 252 253 249 244 239 235 232 227 223 223 224 227 229
287 270 255 244 240 238 237 234 234 235 236 238 240 238 235 230 227 224 223 222 222 222 222 223 225 227 229 231 233 234 234 235 234 231 227 227 230 232 235 238 238 238 238 236 231 226 222 220 219 220 221 221 221 223 225 226 227 228 229 231 233 234 236 238 240 240 240 240 241 244 247 250 251 246 237 231 227 223 219 215 214 216 219 222 225
300 287 269 252 244 240 238 234 231 231 233 235 237 239 238 236 233 230 227 225 225 226 229 232 235 237 238 239 241 242 244 245 243 236 229 227 230 233 236 239 240 240 238 235 231 227 223 222 223 223 224 224 224 224 225 226 226 227 228 229 231 233 234 236 237 236 236 238 242 246 249 251 247 236 227 223 219 213 209 209 212 216 220 223 227
306 299 285 266 253 246 242 238 233 230 230 231 233 236 237 237 235 234 231 230 229 230 233 237 239 240 241 242 244 246 247 247 246 240 233 229 229 231 233 235 237 239 239 235 230 227 225 224 225 226 227 227 228 228 228 228 228 229 230 231 232 232 231 231 231 232 234 238 242 246 248 247 238 228 222 218 211 206 207 210 213 217 221 226 232
308 303 293 277 262 250 244 242 238 234 233 233 233 235 237 237 236 234 232 230 229 229 232 235 237 239 240 241 243 244 245 246 246 243 237 232 232 234 235 234 235 236 237 235 232 230 229 228 227 228 229 230 230 230 230 230 230 230 230 231 231 229 228 227 228 231 235 239 243 246 246 239 228 221 218 213 208 207 211 212 214 218 223 230 237
307 302 295 282 268 254 245 242 240 237 235 235 236 237 237 237 237 236 233 231 229 229 230 232 234 236 238 240 242 242 243 243 243 242 237 234 235 237 236 234 234 233 233 232 231 231 230 230 230 230 231 232 233 233 233 232 231 230 230 230 230 229 228 228 228 231 235 239 242 244 239 230 221 217 214 211 209 211 213 214 216 222 229 235 240
306 301 294 284 274 260 247 241 241 239 237 237 238 239 239 239 239 237 236 233 231 230 230 230 231 232 235 237 238 238 238 238 238 238 236 235 236 237 236 233 231 232 232 232 231 231 230 230 231 231 231 232 233 234 234 233 231 229 228 229 228 228 228 228 229 231 234 237 239 238 232 225 219 215 212 211 212 214 215 217 222 228 234 237 241
303 300 292 283 275 265 252 242 240 239 237 236 237 238 239 238 238 237 237 235 234 232 231 231 232 233 235 237 237 235 234 234 234 234 235 235 236 236 236 232 229 228 229 229 229 229 230 230 231 231 231 232 232 234 234 233 230 228 227 227 227 227 226 226 228 231 233 234 236 233 227 221 218 215 214 215 216 217 218 221 226 231 235 238 242
302 300 294 283 274 267 256 244 239 238 237 236 237 239 238 236 234 234 234 235 235 234 234 235 235 237 239 241 240 238 233 230 229 231 233 234 234 234 233 232 228 227 227 227 226 226 228 230 231 232 232 232 232 232 233 232 230 227 226 226 227 226 225 225 227 229 230 230 231 229 225 221 217 215 216 218 220 221 223 226 231 234 236 239 243
304 302 298 287 277 269 259 246 238 235 235 235 236 238 238 235 232 231 231 232 233 234 235 236 236 237 239 240 239 237 233 228 226 228 230 231 232 232 232 231 229 227 227 227 226 225 225 228 229 231 232 232 232 232 231 230 229 227 226 226 227 226 225 226 227 227 227 227 227 226 223 220 218 217 218 221 223 225 228 230 232 233 233 236 241
308 304 301 293 282 273 264 252 239 232 232 234 233 235 236 236 233 231 231 232 233 235 236 236 236 235 236 237 236 234 231 227 224 225 225 225 227 228 228 227 227 226 226 226 226 226 226 227 228 229 230 231 231 231 230 229 228 226 225 225 226 226 226 226 226 225 224 225 225 224 222 220 219 219 221 224 226 228 232 233 232 230 230 234 240
312 304 299 294 286 277 268 258 245 233 229 231 233 234 236 236 234 231 230 230 232 233 234 234 232 233 234 233 231 229 227 224 223 222 221 221 224 225 224 222 222 223 224 226 226 226 227 228 229 229 228 228 229 229 229 228 227 226 225 225 226 225 225 224 222 222 222 223 224 223 222 221 221 222 225 227 228 230 233 233 232 231 233 237 242
319 312 302 294 287 278 267 258 248 238 231 230 234 236 237 237 235 232 229 228 228 229 230 231 230 230 231 229 227 226 224 223 222 223 222 221 222 222 220 218 218 219 221 223 225 226 227 228 229 228 228 227 227 226 225 225 225 225 226 226 225 224 223 221 220 220 221 222 223 222 222 222 223 224 226 229 230 231 233 234 234 234 236 239 244
321 319 311 301 291 280 268 256 248 242 236 232 234 237 238 239 239 236 232 229 228 229 230 230 229 229 228 227 226 226 225 224 223 223 222 221 220 218 217 215 216 217 219 221 223 225 226 227 227 227 227 226 224 223 222 221 222 222 223 224 224 223 222 221 221 221 221 221 222 222 221 222 224 226 227 230 233 233 234 233 233 233 236 240 244
317 318 316 309 297 284 272 259 248 242 239 235 235 238 241 242 242 240 236 232 230 230 230 229 227 225 225 223 222 223 223 223 222 221 220 219 217 216 215 214 215 217 219 221 223 224 226 226 227 226 225 223 221 220 219 218 218 219 220 222 224 224 224 223 222 221 220 220 221 221 221 222 225 228 229 232 235 236 234 232 231 233 237 241 244
314 315 315 311 303 290 277 264 250 240 237 235 235 238 241 243 243 242 240 237 234 232 231 228 225 223 222 220 219 219 219 219 218 217 216 215 214 214 214 214 216 218 220 222 224 224 225 225 225 224 223 222 221 221 221 221 221 221 223 227 228 225 223 222 220 218 218 218 220 220 222 224 225 227 229 232 234 234 232 230 230 233 238 242 243
314 312 309 308 305 294 282 270 256 244 236 234 233 235 239 242 242 242 242 240 236 233 231 227 224 223 221 218 216 215 215 215 215 214 213 212 212 213 215 216 218 220 222 223 224 224 224 224 223 221 221 222 223 223 225 225 226 228 231 234 231 225 220 218 218 218 218 219 220 221 222 224 225 227 229 229 230 230 230 229 231 235 239 241 240
315 311 306 304 303 295 284 274 264 252 241 234 232 233 237 240 241 241 241 240 237 233 229 225 223 222 221 218 215 213 212 212 213 213 212 212 212 213 216 218 221 223 224 224 224 223 222 220 219 219 220 221 222 223 225 226 229 232 232 232 229 225 221 219 220 221 220 220 221 222 222 223 224 224 224 224 226 229 231 232 235 237 238 236 235
315 313 308 302 299 297 289 277 267 258 247 238 235 236 237 237 238 239 239 239 237 233 228 222 218 218 220 219 217 215 214 213 211 210 210 210 212 214 216 219 221 223 224 224 222 220 218 217 217 218 219 219 220 223 225 227 228 228 226 225 227 229 228 224 223 223 221 220 221 221 220 221 222 220 219 221 227 232 234 236 238 237 233 230 229
317 316 312 304 298 297 293 281 269 259 250 243 243 244 241 237 236 236 237 237 236 233 228 222 216 215 216 217 217 216 215 214 211 209 207 208 210 213 216 219 220 221 220 219 217 216 215 214 216 218 218 219 221 222 223 223 223 223 222 221 222 228 233 231 225 220 219 219 219 218 218 220 219 217 218 223 230 235 238 239 237 231 226 224 224
326 321 315 308 302 298 294 287 274 262 254 249 250 251 247 240 236 234 235 235 234 231 227 221 216 213 212 212 212 212 213 212 211 209 208 209 210 212 214 216 217 217 216 215 215 215 215 216 219 220 219 218 218 218 217 217 219 221 223 221 219 221 228 229 221 214 214 216 216 216 217 218 218 218 221 227 232 237 238 236 230 223 219 220 222
335 329 321 313 308 303 299 293 281 266 257 254 255 256 253 246 239 235 235 235 233 230 225 221 216 211 207 204 203 205 208 210 211 211 210 209 209 210 211 212 212 212 212 214 214 215 218 219 218 216 214 216 218 219 219 219 217 217 219 221 220 220 220 218 213 210 211 212 213 214 216 217 218 220 224 229 234 236 235 230 225 220 218 219 222
340 336 329 320 313 307 301 295 284 270 258 255 255 254 250 245 240 235 232 231 229 226 222 218 213 206 201 198 196 198 201 204 207 209 209 208 207 206 205 205 206 206 208 209 209 210 212 212 208 206 210 214 215 214 214 212 209 208 212 218 221 219 214 211 209 207 207 209 211 212 214 217 219 222 225 229 232 231 229 226 223 221 219 220 222
340 338 333 327 320 312 302 293 284 273 262 256 252 246 239 233 230 227 223 221 219 217 213 210 206 201 197 196 194 194 197 199 202 203 203 202 200 197 194 194 196 197 198 200 201 202 202 202 201 203 205 205 203 202 204 205 205 206 209 216 219 217 214 213 213 210 208 208 211 212 214 217 220 222 225 227 228 227 225 224 223 221 220 220 222